User: anonymous
Location: NJAA Observatory
(40.6819°N, 74.8979°W)
Time: 06:40:05
(UTC-04:00)
Language:

Meteor 2-9 Rocket - Orbit

View from above orbital plane
View from above orbital plane
View from above satellite
View from above satellite

Ground track
Ground track

The orbit data is extracted from the following two-line orbital elements,

1 13719U 82116B   14203.80537927 -.00000007  00000-0 -10559-4 0  4707
2 13719 081.2575 319.0533 0072842 137.0223 334.0779 14.14471814630452
Epoch (UTC): 22 July 2014 19:19:44
Eccentricity: 0.0072842
inclination: 81.2575°
perigee height: 791 km
apogee height: 897 km
right ascension of ascending node: 319.0533°
argument of perigee: 137.0223°
revolutions per day: 14.14471814
mean anomaly at epoch: 334.0779°
orbit number at epoch: 63045

The dashed part of the orbit path shows where the satellite is in the earth's shadow,  

DLR